Weather History for KDOV - February, 2013

Change the Weather History Date:

Wednesday, February 27, 2013

  Actual Average Record
Temperature  
Mean Temperature 50 °F -  
Max Temperature 56 °F 48 °F 73 °F (1997)
Min Temperature 45 °F 29 °F 8 °F (1963)
Degree Days  
Heating Degree Days 14    
Moisture  
Dew Point 45 °F    
Average Humidity 91    
Maximum Humidity 100    
Minimum Humidity 49    
Precipitation  
Precipitation 0.02 in - - ()
Sea Level Pressure  
Sea Level Pressure 29.57 in    
Wind  
Wind Speed 12 mph (South)    
Max Wind Speed 22 mph    
Max Gust Speed 29 mph    
Visibility 6 miles    
Events Fog , Rain    
Averages and records for this station are not official NWS values.
T = Trace of Precipitation, MM = Missing Value Source: NWS Daily Summary

Daily Weather History Graph

Daily Weather History Graph

Search for Another Location

Airport or City:

Trip Planner

Search our weather history database for the weather conditions in past years. The results will help you decide how hot, cold, wet, or windy it might be!

Date:

Astronomy

Feb. 27, 2013 Rise Set
Actual Time 6:37 AM EST 5:52 PM EST
Civil Twilight 6:10 AM EST 6:19 PM EST
Nautical Twilight 5:39 AM EST 6:50 PM EST
Astronomical Twilight 5:08 AM EST 7:21 PM EST
Moon 8:09 PM EST (2/27) 7:12 AM EST (2/27)
Length of Visible Light 12h 09m
Length of Day
11h 15m
Waning Gibbous, 96% of the Moon is Illuminated
Feb 27
Waning Gibbous
Mar 4
Last Quarter
Mar 11
New
Mar 19
First Quarter
Mar 27
Full

Hourly Weather History & Observations

Time (EST) Temp. Windchill Dew Point Humidity Pressure Visibility Wind Dir Wind Speed Gust Speed Precip Events Conditions
12:05 AM 46.4 °F 38.5 °F 46.4 °F 100% 29.63 in 7.0 mi East 21.9 mph 28.8 mph N/A Rain Light Rain
12:19 AM 46.4 °F 40.1 °F 46.4 °F 100% 29.63 in 9.0 mi East 15.0 mph 23.0 mph N/A   Overcast
12:37 AM 48.2 °F - 48.2 °F 100% 29.62 in 10.0 mi East 17.3 mph 24.2 mph N/A Rain Light Rain
12:38 AM 48.2 °F - 48.2 °F 100% 29.62 in 10.0 mi East 17.3 mph 24.2 mph N/A Rain Light Rain
12:55 AM 47.8 °F - 47.8 °F 100% 29.61 in 10.0 mi East 21.9 mph - 0.02 in Rain Light Rain
1:00 AM 48.2 °F - 48.2 °F 100% 29.61 in 10.0 mi East 19.6 mph - N/A Rain Light Rain
1:01 AM 48.2 °F - 48.2 °F 100% 29.61 in 10.0 mi East 18.4 mph - N/A   Overcast
1:21 AM 46.4 °F 39.8 °F 46.4 °F 100% 29.60 in 8.0 mi East 16.1 mph - N/A   Overcast
1:23 AM 46.4 °F 40.1 °F 46.4 °F 100% 29.60 in 7.0 mi East 15.0 mph - N/A   Overcast
1:28 AM 46.4 °F 39.8 °F 46.4 °F 100% 29.59 in 5.0 mi East 16.1 mph - N/A   Overcast
1:55 AM 47.8 °F - 47.8 °F 100% 29.58 in 3.0 mi East 13.8 mph - 0.00 in   Overcast
2:04 AM 48.2 °F - 48.2 °F 100% 29.58 in 2.5 mi East 12.7 mph - N/A   Overcast
2:06 AM 48.2 °F - 48.2 °F 100% 29.57 in 3.0 mi East 15.0 mph - N/A   Overcast
2:10 AM 48.2 °F - 48.2 °F 100% 29.57 in 3.0 mi East 12.7 mph - N/A   Overcast
2:20 AM 48.2 °F - 48.2 °F 100% 29.57 in 3.0 mi East 11.5 mph - N/A Rain Light Rain
2:30 AM 48.2 °F - 48.2 °F 100% 29.55 in 3.0 mi East 12.7 mph - N/A   Overcast
2:55 AM 48.9 °F - 48.9 °F 100% 29.53 in 2.5 mi East 11.5 mph - 0.00 in   Overcast
2:58 AM 48.2 °F - 48.2 °F 100% 29.54 in 2.5 mi East 12.7 mph - N/A   Overcast
3:07 AM 48.2 °F - 48.2 °F 100% 29.53 in 1.8 mi East 12.7 mph - N/A   Overcast
3:33 AM 48.2 °F - 48.2 °F 100% 29.51 in 1.2 mi East 11.5 mph - N/A   Overcast
3:40 AM 48.2 °F - 48.2 °F 100% 29.51 in 1.0 mi East 12.7 mph - N/A   Mist
3:42 AM 48.2 °F - 48.2 °F 100% 29.51 in 1.0 mi East 11.5 mph - N/A   Mist
3:43 AM 48.2 °F - 48.2 °F 100% 29.51 in 1.0 mi East 11.5 mph - N/A   Mist
3:55 AM 48.4 °F - 48.4 °F 100% 29.51 in 1.0 mi East 9.2 mph - N/A   Mist
3:56 AM 48.2 °F - 48.2 °F 100% 29.51 in 0.8 mi East 9.2 mph - N/A   Mist
4:08 AM 48.2 °F - 48.2 °F 100% 29.50 in 0.8 mi ENE 11.5 mph - N/A   Mist
4:16 AM 48.2 °F - 48.2 °F 100% 29.50 in 0.5 mi ENE 11.5 mph - N/A Fog Fog
4:55 AM 47.3 °F - 47.3 °F 100% 29.49 in 0.5 mi East 8.1 mph - N/A Fog Fog
5:07 AM 46.4 °F 42.4 °F 46.4 °F 100% 29.50 in 0.5 mi East 8.1 mph - N/A Fog Fog
5:55 AM 46.2 °F 45.0 °F 46.2 °F 100% 29.50 in 0.5 mi SE 3.5 mph - N/A Fog Fog
6:02 AM 46.4 °F 44.3 °F 46.4 °F 100% 29.50 in 0.5 mi SSE 4.6 mph - N/A Fog Fog
6:26 AM 46.4 °F - 46.4 °F 100% 29.49 in 0.2 mi Calm Calm - N/A Fog Fog
6:29 AM 46.4 °F - 46.4 °F 100% 29.49 in 0.2 mi Calm Calm - N/A Fog Fog
6:35 AM 46.4 °F - 46.4 °F 100% 29.49 in 0.2 mi Calm Calm - N/A Fog Fog
6:43 AM 46.4 °F - 46.4 °F 100% 29.49 in 0.2 mi Calm Calm - N/A Fog Fog
6:44 AM 46.4 °F - 46.4 °F 100% 29.49 in 0.2 mi Calm Calm - N/A Fog Fog
6:52 AM 46.4 °F 45.2 °F 46.4 °F 100% 29.49 in 0.5 mi SSE 3.5 mph - N/A Fog Fog
6:53 AM 46.4 °F - 46.4 °F 100% 29.49 in 0.5 mi Calm Calm - N/A Fog Fog
6:54 AM 46.4 °F 45.2 °F 46.4 °F 100% 29.49 in 0.5 mi SSE 3.5 mph - N/A Fog Fog
6:55 AM 45.9 °F 44.6 °F 45.9 °F 100% 29.49 in 0.5 mi SSE 3.5 mph - N/A Fog Fog
7:01 AM 46.4 °F 45.2 °F 46.4 °F 100% 29.49 in 0.8 mi South 3.5 mph - N/A   Mostly Cloudy
7:05 AM 46.4 °F - 46.4 °F 100% 29.50 in 0.8 mi Calm Calm - N/A   Mostly Cloudy
7:08 AM 46.4 °F 45.2 °F 46.4 °F 100% 29.50 in 1.0 mi South 3.5 mph - N/A   Mostly Cloudy
7:10 AM 46.4 °F 44.3 °F 46.4 °F 100% 29.50 in 1.2 mi SSW 4.6 mph - N/A   Overcast
7:11 AM 46.4 °F 44.3 °F 46.4 °F 100% 29.50 in 1.5 mi SSW 4.6 mph - N/A   Overcast
7:12 AM 46.4 °F 44.3 °F 46.4 °F 100% 29.50 in 1.8 mi SSW 4.6 mph - N/A   Overcast
7:13 AM 46.4 °F 44.3 °F 46.4 °F 100% 29.50 in 2.0 mi SSW 4.6 mph - N/A   Overcast
7:14 AM 46.4 °F 44.3 °F 46.4 °F 100% 29.50 in 3.0 mi SSW 4.6 mph - N/A   Overcast
7:17 AM 46.4 °F 44.3 °F 46.4 °F 100% 29.50 in 4.0 mi SSW 4.6 mph - N/A   Overcast
7:23 AM 46.4 °F 43.5 °F 46.4 °F 100% 29.51 in 5.0 mi SSW 5.8 mph - N/A   Overcast
7:27 AM 46.4 °F 42.9 °F 46.4 °F 100% 29.51 in 6.0 mi SSW 6.9 mph - N/A   Overcast
7:40 AM 48.2 °F - 48.2 °F 100% 29.51 in 10.0 mi SW 10.4 mph - N/A   Overcast
7:48 AM 50.0 °F - 50.0 °F 100% 29.51 in 10.0 mi SSW 15.0 mph - N/A   Overcast
7:55 AM 49.5 °F - 49.5 °F 100% 29.52 in 10.0 mi SSW 16.1 mph - N/A   Overcast
8:02 AM 50.0 °F - 50.0 °F 100% 29.52 in 10.0 mi SSW 15.0 mph - N/A   Overcast
8:14 AM 50.0 °F - 50.0 °F 100% 29.53 in 9.0 mi SSW 15.0 mph - N/A   Overcast
8:25 AM 50.0 °F - 50.0 °F 100% 29.53 in 10.0 mi SSW 13.8 mph - N/A   Overcast
8:36 AM 50.0 °F - 50.0 °F 100% 29.54 in 10.0 mi SSW 18.4 mph - N/A   Overcast
8:41 AM 48.2 °F - 48.2 °F 100% 29.54 in 10.0 mi SSW 16.1 mph - N/A   Overcast
8:55 AM 48.4 °F - 48.4 °F 100% 29.55 in 10.0 mi SW 18.4 mph 26.5 mph N/A   Overcast
9:24 AM 46.4 °F 39.8 °F 46.4 °F 100% 29.55 in 10.0 mi SW 16.1 mph 21.9 mph N/A   Overcast
9:33 AM 46.4 °F 40.4 °F 46.4 °F 100% 29.56 in 10.0 mi WSW 13.8 mph 21.9 mph N/A   Overcast
9:55 AM 46.4 °F 39.8 °F 46.4 °F 100% 29.56 in 10.0 mi SW 16.1 mph 21.9 mph N/A   Overcast
10:03 AM 46.4 °F 39.8 °F 46.4 °F 100% 29.57 in 10.0 mi SW 16.1 mph 23.0 mph N/A   Overcast
10:16 AM 46.4 °F 39.5 °F 46.4 °F 100% 29.57 in 10.0 mi WSW 17.3 mph - N/A   Overcast
10:28 AM 46.4 °F 39.8 °F 46.4 °F 100% 29.58 in 10.0 mi WSW 16.1 mph 24.2 mph N/A   Overcast
10:51 AM 48.2 °F - 48.2 °F 100% 29.58 in 10.0 mi WSW 17.3 mph 21.9 mph N/A   Mostly Cloudy
10:55 AM 48.7 °F - 48.4 °F 99% 29.58 in 10.0 mi WSW 15.0 mph 21.9 mph N/A   Mostly Cloudy
11:06 AM 50.0 °F - 48.2 °F 94% 29.58 in 10.0 mi West 19.6 mph 27.6 mph N/A   Mostly Cloudy
11:08 AM 50.0 °F - 48.2 °F 94% 29.59 in 10.0 mi West 20.7 mph 27.6 mph N/A   Mostly Cloudy
11:14 AM 50.0 °F - 46.4 °F 87% 29.59 in 10.0 mi West 15.0 mph 27.6 mph N/A   Mostly Cloudy
11:55 AM 52.3 °F - 43.7 °F 72% 29.59 in 10.0 mi West 19.6 mph 25.3 mph N/A   Clear
12:55 PM 54.3 °F - 42.3 °F 64% 29.59 in 10.0 mi WNW 17.3 mph 23.0 mph N/A   Partly Cloudy
1:55 PM 56.5 °F - 39.9 °F 54% 29.60 in 10.0 mi WSW 19.6 mph 24.2 mph N/A   Scattered Clouds
2:55 PM 56.1 °F - 38.1 °F 51% 29.61 in 10.0 mi West 15.0 mph 23.0 mph N/A   Mostly Cloudy
3:55 PM 54.9 °F - 35.8 °F 49% 29.62 in 10.0 mi West 13.8 mph 24.2 mph N/A   Scattered Clouds
4:55 PM 54.5 °F - 36.5 °F 51% 29.62 in 10.0 mi WSW 12.7 mph - N/A   Partly Cloudy
5:55 PM 51.8 °F - 37.0 °F 57% 29.65 in 10.0 mi SW 5.8 mph - N/A   Mostly Cloudy
6:55 PM 50.4 °F - 37.9 °F 62% 29.67 in 10.0 mi SSW 3.5 mph - N/A   Overcast
7:55 PM 49.1 °F - 39.6 °F 70% 29.67 in 10.0 mi West 5.8 mph - N/A   Overcast
8:20 PM 50.0 °F - 39.2 °F 66% 29.69 in 10.0 mi West 5.8 mph - N/A Rain Light Rain
8:39 PM 50.0 °F - 37.4 °F 62% 29.69 in 10.0 mi WNW 4.6 mph - N/A   Overcast
8:54 PM 50.0 °F - 35.6 °F 58% 29.69 in 10.0 mi WNW 5.8 mph - N/A   Light Drizzle
8:55 PM 49.6 °F - 36.0 °F 59% 29.69 in 10.0 mi WNW 5.8 mph - 0.00 in   Light Drizzle
8:59 PM 50.0 °F - 35.6 °F 58% 29.69 in 10.0 mi WNW 6.9 mph - N/A   Light Drizzle
9:08 PM 48.2 °F - 37.4 °F 66% 29.69 in 10.0 mi WNW 5.8 mph - N/A Rain Light Rain
9:26 PM 48.2 °F - 37.4 °F 66% 29.69 in 10.0 mi WNW 4.6 mph - N/A   Overcast
9:28 PM 48.2 °F - 37.4 °F 66% 29.69 in 10.0 mi NW 4.6 mph - N/A Rain Light Rain
9:38 PM 48.2 °F - 37.4 °F 66% 29.69 in 10.0 mi WNW 4.6 mph - N/A   Overcast
9:55 PM 47.8 °F - 35.1 °F 61% 29.68 in 10.0 mi NW 4.6 mph - 0.00 in   Overcast
10:55 PM 48.4 °F - 33.4 °F 56% 29.67 in 10.0 mi Calm Calm - N/A   Overcast
11:55 PM 45.1 °F - 34.5 °F 66% 29.65 in 10.0 mi Calm Calm - N/A   Mostly Cloudy